Location: Littleton
(51.0833°N, 1.3500°W)
Time: 06:25:26
(UTC+00:00)

Daily predictions for brighter satellites

Satellite Brightness Start Highest point End
(mag) Time Altitude Azimuth Time Altitude Azimuth Time Altitude Azimuth
IRIDIUM 104 4.3 19:12:59 10° N 19:18:14 74° E 19:23:27 10° S
STARLINK-1224 3.8 19:15:21 10° WNW 19:19:29 69° N 19:23:38 10° E
STARLINK-1206 2.9 19:16:49 10° WNW 19:19:57 86° N 19:23:05 10° ESE
STARLINK-1247 2.9 19:17:16 10° WNW 19:20:24 86° NNE 19:23:32 10° ESE
STARLINK-1227 2.9 19:17:41 10° WNW 19:20:50 87° N 19:24:00 10° ESE
STARLINK-1218 2.9 19:18:10 10° WNW 19:21:18 87° NNE 19:24:25 10° ESE
STARLINK-1226 2.9 19:18:36 10° WNW 19:21:44 87° NNE 19:24:52 10° ESE
Cosmos 614 Rocket 4.4 19:17:03 10° S 19:21:53 40° ESE 19:26:44 10° NE
MOS 1 4.3 19:16:21 10° SSE 19:21:57 71° ENE 19:27:38 10° NNW
STARLINK-1254 2.9 19:19:02 10° WNW 19:22:11 88° NNE 19:25:20 10° ESE
STARLINK-1215 2.9 19:19:31 10° WNW 19:22:40 88° NNE 19:25:47 10° ESE
ERBS 3.3 19:19:52 10° NW 19:23:04 37° NNE 19:26:15 10° E
STARLINK-1231 2.9 19:19:58 10° WNW 19:23:06 88° NNE 19:26:14 10° ESE
Cosmos 2074 Rocket 4.1 19:17:06 10° N 19:23:26 81° E 19:29:44 10° SSE
STARLINK-1232 2.9 19:20:53 10° WNW 19:24:01 89° NNE 19:27:08 10° ESE
STARLINK-1217 2.9 19:21:18 10° WNW 19:24:27 89° NNE 19:27:34 10° ESE
STARLINK-1225 3.8 19:20:20 10° WNW 19:24:29 70° N 19:28:38 10° E
Cosmos 1908 3.8 19:20:58 10° SSE 19:24:32 36° E 19:28:09 10° NNE
STARLINK-1208 2.9 19:21:45 10° WNW 19:24:54 90° NNE 19:28:04 10° ESE
STARLINK-1229 2.9 19:22:14 10° WNW 19:25:22 90° SSE 19:28:30 10° ESE
STARLINK-1271 2.9 19:22:40 10° WNW 19:25:48 90° SSW 19:28:56 10° ESE
STARLINK-1270 2.9 19:23:08 10° WNW 19:26:15 89° SSW 19:29:23 10° ESE
STARLINK-1154 2.9 19:23:34 10° WNW 19:26:42 89° SSW 19:29:49 10° ESE
APEX 4.4 19:20:17 10° NNW 19:27:03 83° ENE 19:32:32 10° SE
IRIDIUM 114 4.4 19:22:08 10° N 19:27:24 87° E 19:32:38 10° S
STARLINK-1197 2.9 19:24:30 10° WNW 19:27:38 88° SSW 19:30:46 10° ESE
STARLINK-1189 2.9 19:24:55 10° WNW 19:28:03 88° SSW 19:31:11 10° ESE
STARLINK-1198 2.9 19:25:24 10° WNW 19:28:32 87° SSW 19:31:40 10° ESE
STARLINK-1188 2.9 19:25:48 10° WNW 19:28:56 87° SSW 19:32:04 10° ESE
STARLINK-1230 3.8 19:25:19 10° WNW 19:29:28 72° N 19:33:37 10° E
STARLINK-1235 2.9 19:26:30 10° WNW 19:29:39 76° SSW 19:32:48 10° ESE
STARLINK-1187 2.9 19:26:54 10° WNW 19:30:05 81° SSW 19:33:15 10° ESE
Cosmos 1726 2.1 19:26:24 10° S 19:30:08 81° E 19:33:53 10° NNE
STARLINK-67 3.2 19:28:15 10° W 19:30:43 43° SSW 19:33:11 10° SE
STARLINK-1199 2.9 19:27:46 10° WNW 19:30:55 85° SSW 19:34:04 10° ESE
STARLINK-1191 2.9 19:28:14 10° WNW 19:31:22 85° SSW 19:34:30 10° ESE
STARLINK-1210 2.9 19:28:40 10° WNW 19:31:49 85° SSW 19:34:56 10° ESE
Cosmos 1656 Rocket 4.1 19:26:23 10° NNW 19:32:02 69° WSW 19:37:34 10° SSE
STARLINK-1221 2.9 19:29:08 10° WNW 19:32:18 84° SSW 19:35:23 10° ESE
Cosmos 1943 3.2 19:26:44 10° SSW 19:32:24 83° ESE 19:38:08 10° NNE
STARLINK-1219 2.9 19:29:34 10° WNW 19:32:44 84° SSW 19:35:49 10° ESE
STARLINK-1222 2.9 19:30:01 10° WNW 19:33:11 83° SSW 19:36:14 11° ESE
STARLINK-1211 2.9 19:30:30 10° WNW 19:33:39 83° SSW 19:36:41 11° ESE
STARLINK-1214 2.9 19:30:56 10° WNW 19:34:05 83° SSW 19:37:06 11° ESE
Abrixas rocket 2.6 19:31:17 10° W 19:34:07 42° S 19:36:49 11° ESE
STARLINK-1243 3.8 19:30:17 10° WNW 19:34:27 73° N 19:38:35 10° E
STARLINK-1245 2.9 19:31:25 10° WNW 19:34:33 82° SSW 19:37:32 11° ESE
STARLINK-1238 2.9 19:31:50 10° WNW 19:34:59 82° SSW 19:37:59 11° ESE
Meteor 2-10 4.2 19:29:58 10° S 19:35:30 85° E 19:41:14 10° NNE
BREEZE-M DEB (TANK) 4.2 19:28:11 10° W 19:35:44 57° SSW 19:38:38 10° SE
STARLINK-1205 2.9 19:32:47 10° WNW 19:35:55 81° SSW 19:38:51 11° ESE
STARLINK-1204 2.9 19:33:14 10° WNW 19:36:22 81° SSW 19:39:16 11° ESE
STARLINK-29 4.4 19:34:36 10° S 19:37:00 20° SE 19:39:25 10° E
CZ-4 R/B 4.3 19:36:57 10° SW 19:39:20 16° W 19:41:43 10° NW
STARLINK-1236 3.7 19:35:16 10° WNW 19:39:25 75° N 19:43:28 11° E
Cosmos 1610 Rocket 4.5 19:34:07 10° N 19:40:20 73° ENE 19:46:27 10° SSE
MetOp-A 4.3 19:36:27 10° SE 19:41:42 58° ENE 19:46:57 10° N
STARLINK-60 3.6 19:38:40 10° SW 19:41:45 38° SSE 19:44:50 10° E
CZ-2C R/B 3.4 19:37:22 10° NNE 19:41:52 29° E 19:46:21 10° SSE
Cosmos 1697 Rocket 4.4 19:39:25 10° NNW 19:43:35 20° NE 19:47:44 10° E
Cosmos 1953 3.3 19:40:38 10° SSW 19:44:31 53° WNW 19:48:28 10° N
Cosmos 407 Rocket 3.5 19:43:29 10° S 19:48:29 54° ESE 19:53:28 10° NNE
STARLINK-1269 3.7 19:45:14 10° WNW 19:49:23 79° NNE 19:53:02 13° E
Meteor 1-11 4.3 19:43:39 10° N 19:49:27 81° ENE 19:55:09 10° SSE
Terra 4.1 19:49:07 10° NE 19:49:31 10° NE 19:49:54 10° NE
ARGOS 3.4 19:44:46 10° S 19:50:09 76° WSW 19:55:34 10° NNW
STARLINK-1200 3.6 19:50:12 10° WNW 19:54:22 81° NNE 19:57:48 15° ESE
CZ-2C R/B 3.9 19:53:31 10° NNE 19:58:10 55° E 20:02:41 10° S
SL-24 R/B - RUBIN 2 4.4 19:52:45 10° SSW 19:58:18 58° ESE 20:04:33 10° NE
STARLINK-1192 3.6 19:55:12 10° WNW 19:59:22 84° NNE 20:02:36 16° ESE
SPOT 3 Rocket 3.5 19:55:16 10° SSE 20:00:29 84° ENE 20:05:44 10° NNW
Resurs 1-3 3.6 19:58:33 10° SSE 20:02:55 72° ENE 20:07:19 10° N
COSMOS 2455 2.9 19:58:00 10° NW 20:04:05 89° WSW 20:09:32 13° SE
STARLINK-1201 3.2 20:01:00 10° WNW 20:04:15 60° SSW 20:06:17 20° SE
STARLINK-1244 3.6 20:00:11 10° WNW 20:04:21 86° NNE 20:07:23 18° ESE
STARLINK-1228 3.6 20:03:08 10° W 20:05:42 36° SSW 20:07:12 19° SSE
STARLINK-1138 3.6 20:05:10 10° WNW 20:09:20 89° NNE 20:12:10 20° ESE
SL-08 RB Rocket 4.1 20:05:04 10° S 20:09:37 65° WSW 20:14:14 10° NNW
Cosmos 1023 Rocket 4.4 20:05:29 10° S 20:10:35 63° ESE 20:15:40 10° NNE
MOS 1 Rocket 3.8 20:06:01 10° NNE 20:11:18 54° E 20:16:38 10° S
FALCON 9 DEB 3.8 20:09:26 10° SSW 20:12:37 34° SSE 20:14:16 22° E
Cosmos 1455 4.5 20:13:23 10° ENE 20:13:23 10° ENE 20:13:36 10° ENE
Cosmos 1954 Rocket 4.3 20:08:16 10° S 20:13:13 45° ESE 20:18:11 10° NE
Cosmos 1980 Rocket 4.0 20:09:15 10° NNW 20:13:15 19° NE 20:17:15 10° E
STARLINK-1143 3.6 20:10:08 10° WNW 20:14:18 88° SSW 20:16:57 22° ESE
Cosmos 1818 4.1 20:10:03 10° SW 20:15:27 65° NW 20:20:54 10° NE
Cosmos 1892 3.9 20:12:22 10° N 20:15:43 27° ENE 20:17:05 22° ESE
ATLAS CENTAUR R/B 3.1 20:13:54 10° NNW 20:17:00 21° NNE 20:19:27 12° ENE
STARLINK-52 3.6 20:14:21 10° SSW 20:17:16 33° SSE 20:18:09 27° ESE
Cosmos 2058 Rocket 3.1 20:14:18 10° S 20:18:49 88° ESE 20:23:21 10° N
STARLINK-1241 3.6 20:15:10 10° WNW 20:19:19 85° SSW 20:21:46 24° ESE
BREEZE M DEB (TANK) 3.8 20:17:51 10° SSW 20:21:07 31° SE 20:29:00 10° ENE
Cosmos 2341 Rocket 4.0 20:16:03 10° N 20:22:29 81° E 20:28:53 10° SSE
Cosmos 1825 4.1 20:20:37 10° NNE 20:22:49 15° ENE 20:23:21 14° ENE
CZ-4C R/B 3.7 20:16:53 10° NW 20:23:00 39° NNE 20:29:18 13° E
ATLAS 5 CENTAUR R/B 1.5 20:19:45 10° SSW 20:23:56 71° SE 20:28:43 10° NE
Cosmos 1726 Rocket 4.3 20:19:45 10° SSW 20:24:06 56° WNW 20:28:30 10° N
SPOT 1/Viking Rocket 4.4 20:21:22 20° ESE 20:24:11 35° ENE 20:28:55 10° N
STARLINK-1239 3.6 20:20:07 10° WNW 20:24:16 81° SSW 20:26:31 26° ESE
SJ-6B 4.5 20:23:23 10° SSW 20:27:11 35° W 20:31:00 10° NNW
Cosmos 1763 Rocket 3.9 20:23:13 10° NNW 20:28:15 46° ENE 20:30:58 24° ESE
STARLINK-1240 3.6 20:25:06 10° WNW 20:29:15 78° SSW 20:31:18 29° ESE
Cosmos 921 Rocket 3.6 20:26:21 10° NNW 20:30:26 53° WSW 20:34:07 12° S
Aureole 1 Rocket 4.3 20:26:49 10° SSW 20:34:03 72° WNW 20:39:35 10° NNE
STARLINK-1216 3.6 20:30:05 10° WNW 20:34:14 75° SSW 20:36:05 31° ESE
Cosmos 1461 4.5 20:30:21 10° NW 20:34:26 33° WSW 20:38:10 12° S
Cosmos 2218 Rocket 4.0 20:29:00 10° N 20:35:12 65° ENE 20:39:41 20° SSE
Resurs 01 Rocket 1.7 20:31:54 16° S 20:35:28 79° WSW 20:39:55 10° NNW
H-2A R/B 4.0 20:31:52 10° SSW 20:36:15 28° W 20:40:34 10° NW
SeaSat 1 4.3 20:34:39 10° NNE 20:39:01 33° NW 20:43:23 10° WSW
Cosmos 1300 2.6 20:35:17 10° S 20:39:02 83° E 20:42:52 10° NNE
Cosmos 1174 4.0 20:35:04 10° NW 20:39:04 79° NE 20:41:25 30° SE
STARLINK-1237 3.6 20:35:03 10° WNW 20:39:11 71° SSW 20:40:51 34° SE
Iridium 4 Rocket 3.3 20:36:27 10° N 20:40:32 46° E 20:41:54 33° SE
USA 234 3.8 20:37:33 10° ENE 20:43:23 34° SE 20:49:13 10° SSW
In-Cosmos 22 Rocket 4.2 20:37:48 10° N 20:43:41 77° ENE 20:47:33 22° SSE
Landsat 7 4.1 20:42:03 30° SE 20:44:10 52° ENE 20:48:48 10° N
STARLINK-1202 3.7 20:40:04 10° WNW 20:44:12 68° SSW 20:45:40 37° SE
SAR-Lupe-2 3.6 20:41:43 10° NNE 20:45:15 53° ESE 20:46:10 40° SSE
Cosmos 220 Rocket 4.0 20:42:06 10° NNW 20:46:27 85° WSW 20:48:32 31° SSE
Cosmos 1812 Rocket 3.6 20:46:09 30° SSE 20:48:03 54° E 20:52:18 10° NNE
ATLAS 2AS CENTAUR R/B 4.2 20:42:44 10° NW 20:49:15 33° WSW 20:55:20 10° S
SL-8 Rocket 4.0 20:43:07 10° N 20:49:29 88° W 20:54:31 17° S
USA 245 4.4 20:46:40 24° SSE 20:50:23 74° ENE 20:56:51 10° NNW
RESURS DK-1 3.0 20:46:37 10° NNW 20:50:37 43° NE 20:51:45 34° E
SL-4 R/B 1.4 20:48:03 10° W 20:51:28 88° N 20:52:28 44° E
Cosmos 864 Rocket 4.4 20:45:18 10° N 20:51:33 77° E 20:55:29 24° SSE
Cosmos 2058 2.8 20:48:24 10° N 20:52:32 78° E 20:54:04 37° SSE
Cosmos 1140 Rocket 3.9 20:48:11 10° SW 20:53:20 65° WNW 20:58:30 10° NNE
Cosmos 2181 Rocket 3.9 20:47:47 10° S 20:54:02 79° E 21:00:13 10° NNE
STARLINK-1246 3.8 20:50:01 10° WNW 20:54:06 61° SSW 20:55:12 43° SSE
STARLINK-1233 4.4 20:51:29 10° W 20:54:11 26° SW 20:54:22 25° SSW
Cosmos 1340 Rocket 4.2 20:50:25 10° SW 20:54:14 39° WNW 20:58:03 10° N
STARLINK-1212 4.4 20:51:56 10° W 20:54:37 25° SW 20:54:46 25° SSW
STARLINK-1105 4.4 20:52:23 10° W 20:55:03 25° SW 20:55:13 25° SSW
Cosmos 1833 Rocket 4.1 20:56:29 20° E 20:56:29 20° E 20:59:21 10° NE
STARLINK-1206 4.4 20:52:54 10° W 20:55:32 25° SW 20:55:38 25° SSW
STARLINK-1247 4.4 20:53:21 10° W 20:55:58 25° SW 20:56:04 25° SSW
STARLINK-1227 4.4 20:53:46 10° W 20:56:24 25° SW 20:56:32 25° SSW
MetOp-B 4.1 20:53:18 23° SSE 20:56:42 84° WSW 21:02:06 10° NNW
STARLINK-1218 4.5 20:54:15 10° W 20:56:51 24° SW 20:56:56 24° SSW
USA 32 4.4 20:52:07 10° N 20:57:11 46° ENE 20:58:49 35° ESE
STARLINK-1226 4.5 20:54:41 10° W 20:57:18 24° SW 20:57:22 24° SW
STARLINK-1254 4.5 20:55:07 10° W 20:57:45 24° SW 20:57:49 24° SW
Cosmos 2151 3.5 20:54:10 10° N 20:58:09 40° ENE 20:58:42 38° E
STARLINK-1203 3.9 20:54:08 10° WNW 20:58:15 55° SSW 20:59:15 43° SSE
STARLINK-1224 3.8 20:55:01 10° WNW 20:59:05 57° SSW 21:00:00 45° SSE
Meteor 2-10 Rocket 4.2 20:58:38 33° ESE 20:59:28 35° E 21:04:22 10° NNE
ERBS 2.4 20:56:12 10° WNW 20:59:32 60° SW 20:59:49 57° S
Spot 2 Rocket 3.5 20:59:40 28° SSE 21:02:24 86° WSW 21:07:33 10° NNW
BREEZE-M DEB (TANK) 2.2 20:59:47 10° W 21:02:11 41° WSW 21:02:11 41° WSW
Cosmos 2366 rocket 3.9 20:56:50 10° N 21:03:01 88° W 21:06:58 24° S
STARLINK-1225 3.9 21:00:01 10° WNW 21:04:04 54° SSW 21:04:48 46° S
Cosmos 1850 Rocket 4.1 21:02:15 33° SSE 21:04:14 50° ESE 21:09:14 10° NNE
Cosmos 841 Rocket 3.8 21:01:22 10° NNW 21:06:33 53° ENE 21:08:12 38° ESE
STARLINK-1230 3.9 21:04:58 10° WNW 21:09:01 51° SSW 21:09:34 47° S
Abrixas rocket 4.4 21:07:14 10° WSW 21:08:24 15° SW 21:08:24 15° SW
Cosmos 1076 Rocket 3.6 21:05:07 10° NNW 21:09:24 71° W 21:11:05 35° S
COSMOS 2406 3.5 21:08:16 37° SE 21:09:30 43° ESE 21:14:52 10° NE
Cosmos 1408 2.7 21:08:12 10° N 21:11:46 58° ENE 21:11:46 58° ENE
STARLINK-29 3.6 21:09:35 10° WSW 21:11:57 46° WSW 21:11:57 46° WSW
STARLINK-1243 4.0 21:09:58 10° WNW 21:13:58 48° SSW 21:14:20 46° SSW
CZ-4B DEB 4.3 21:17:31 81° NNE 21:17:31 81° NNE 21:20:47 10° NNW
Nadezhda 3 Rocket 4.4 21:15:55 37° SE 21:17:30 44° E 21:23:24 10° NNE
STARLINK-60 3.2 21:14:43 10° W 21:17:50 69° NW 21:17:50 69° NW
Cosmos 468 Rocket 4.1 21:13:12 10° NNW 21:18:21 67° WSW 21:20:19 37° S
STARLINK-1236 4.1 21:14:57 10° WNW 21:18:54 45° SSW 21:19:07 45° SSW
CZ-2C R/B 3.5 21:17:25 10° N 21:22:23 48° WNW 21:27:21 10° SW
SPOT 5 2.6 21:22:33 58° ESE 21:23:01 63° ENE 21:27:19 10° N
Cosmos 2369 3.7 21:20:07 10° NNW 21:25:46 67° ENE 21:27:19 47° ESE
Terra 2.0 21:25:36 49° E 21:26:14 52° ENE 21:30:53 10° N
Cosmos 1570 Rocket 4.0 21:21:36 10° NNW 21:27:01 87° ENE 21:28:26 51° SSE
ERS-1 Rocket 2.9 21:27:10 51° SSE 21:28:27 85° ENE 21:33:32 10° NNW
Cosmos 1697 Rocket 2.7 21:22:54 10° NNW 21:28:37 71° ENE 21:30:07 49° SE
STARLINK-1269 4.4 21:24:56 10° WNW 21:28:41 40° SW 21:28:41 40° SW
Cosmos-2242 3.0 21:33:27 67° E 21:33:27 67° E 21:37:39 10° NNE
Meteor 2-1 Rocket 4.4 21:31:08 21° SSW 21:35:13 78° WNW 21:41:13 10° N
Cosmos 489 Rocket 4.4 21:29:29 10° NNW 21:35:44 82° WSW 21:37:49 45° SSE
Cosmos 2239 Rocket 4.5 21:33:03 10° N 21:39:17 68° ENE 21:40:56 49° SE
Cosmos 1821 Rocket 4.0 21:37:37 10° N 21:44:03 82° E 21:45:57 49° SSE
Cosmos 1934 Rocket 4.1 21:40:44 10° N 21:46:55 56° ENE 21:48:02 49° ESE
Cosmos 1455 2.6 21:48:16 61° NNW 21:48:16 61° NNW 21:51:34 10° N
SL-16 R/B 3.7 21:43:32 10° NNW 21:48:19 27° NE 21:50:12 22° ENE
Cosmos 1356 Rocket 3.4 21:48:19 80° W 21:48:22 80° WNW 21:52:38 10° N
Cosmos 2360 Rocket 4.3 21:46:12 10° N 21:49:52 17° NNE 21:53:00 12° ENE
IGS 5A 4.5 21:50:07 36° WSW 21:50:48 39° W 21:54:43 10° NNW
Cosmos 1656 4.2 21:45:40 10° NW 21:51:11 52° WSW 21:52:36 42° SSW
Cosmos 1892 4.2 21:47:59 10° NNW 21:51:25 30° W 21:52:06 28° WSW
Cosmos 2322 Rocket 3.7 21:51:18 10° NNW 21:55:59 26° NE 21:57:48 22° ENE
ATLAS CENTAUR R/B 1.8 21:52:32 10° NW 21:55:38 53° NW 21:55:38 53° NW
Mayak 0.4 21:54:24 10° NNE 21:56:22 24° NE 21:56:22 24° NE
Cosmos 1980 Rocket 2.2 21:52:43 10° NNW 21:58:21 68° ENE 21:59:03 61° E
Cosmos 1825 2.9 21:55:01 10° NNW 21:58:10 51° NW 21:58:10 51° NW
CARTOSAT-1 4.0 22:00:00 54° WSW 22:00:07 54° W 22:04:23 10° NNW
Cosmos 1741 Rocket 4.4 21:58:32 25° SW 22:01:36 65° WNW 22:06:55 10° NNE
Meteor 2-3 Rocket 3.6 21:56:47 10° N 22:02:35 75° ENE 22:03:10 68° SE
Cosmos 1605 Rocket 4.2 21:57:19 10° N 22:03:18 50° ENE 22:03:58 48° E
SPOT 1/Viking Rocket 4.5 22:02:00 33° SW 22:03:32 42° W 22:08:30 10° NNW
Cosmos 2208 Rocket 4.3 22:03:03 10° NNW 22:08:08 54° WSW 22:08:40 51° SW
ATLAS 5 CENTAUR R/B 3.5 22:05:02 10° W 22:09:01 31° NNW 22:13:34 10° NE
Okean 3 Rocket 4.3 22:06:37 10° NNW 22:10:51 45° W 22:11:00 45° W
CZ-4C R/B 2.8 22:05:22 10° NW 22:12:23 89° NE 22:14:28 54° SE
Cosmos 1766 Rocket 4.1 22:08:10 10° NNW 22:12:29 52° W 22:12:29 52° W
ALOS 2 4.4 22:16:03 22° NE 22:16:03 22° NE 22:18:53 10° N
Cosmos 540 Rocket 3.9 22:11:28 10° NNW 22:16:29 52° WSW 22:16:44 51° WSW
Cosmos 2360 4.2 22:17:07 10° NW 22:22:47 69° WSW 22:23:03 67° SW
Cosmos 1500 Rocket 4.3 22:18:57 10° N 22:22:11 47° NNE 22:22:11 47° NNE
USA 234 3.1 22:20:22 10° ENE 22:26:58 86° SSE 22:33:31 10° WSW
Cosmos 2278 3.7 22:21:52 10° NW 22:27:30 67° WSW 22:27:38 66° SW
RESURS DK-1 4.2 22:25:01 10° NW 22:27:39 24° W 22:27:39 24° W
Cosmos 2082 Rocket 2.5 22:30:55 54° ENE 22:30:55 54° ENE 22:35:29 10° NE
SL-4 R/B 4.4 22:27:37 10° W 22:28:04 13° W 22:28:04 13° W
ASTEX 1 3.7 22:37:03 64° WNW 22:37:03 64° WNW 22:41:41 10° N
Cosmos 1833 Rocket 2.7 22:38:05 71° WSW 22:38:33 76° WNW 22:44:13 10° NNE
Cosmos 2344 4.3 22:34:51 10° NW 22:44:11 83° SW 22:48:33 47° SSE
Cosmos 2219 Rocket 4.5 22:44:00 10° N 22:47:41 17° NNE 22:50:59 11° ENE
Cosmos 1607 4.4 22:55:17 48° ENE 22:55:17 48° ENE 22:59:56 10° NE
COSMOS 2406 4.3 22:50:12 19° WSW 22:53:51 42° NW 22:59:18 10° NNE
Meteor 1-27 4.3 22:55:28 78° WNW 22:55:28 78° WNW 23:01:21 10° N
Terra 3.6 23:04:29 23° W 23:04:29 23° W 23:08:07 10° NW
Cosmos 968 Rocket 4.4 23:06:04 41° NE 23:06:04 41° NE 23:09:35 10° NNE
Cosmos 2221 3.9 23:11:04 38° NNW 23:11:04 38° NNW 23:13:58 10° N
Cosmos 1697 Rocket 4.3 23:07:41 10° NW 23:11:51 23° W 23:11:51 23° W
Cosmos 1459 Rocket 4.1 23:06:42 10° N 23:12:56 63° ENE 23:12:56 63° ENE
NOSS 2-1 (C) 4.4 23:17:33 10° NW 23:21:45 66° N 23:21:45 66° N
Cosmos 1727 Rocket 3.9 23:24:37 84° N 23:24:37 84° N 23:30:46 10° N
NOSS 2-1 (D) 4.4 23:21:47 10° NW 23:25:54 65° NNW 23:25:54 65° NNW
Cosmos 2016 Rocket 4.2 23:25:25 10° N 23:31:34 60° ENE 23:31:34 60° ENE
Cosmos 1725 Rocket 4.4 23:25:58 10° N 23:32:04 51° ENE 23:32:04 51° ENE
SL-16 R/B 2.5 23:27:22 10° NNW 23:32:03 61° NW 23:32:03 61° NW
Mayak 0.7 23:30:14 10° N 23:32:57 25° NW 23:32:57 25° NW
Cosmos 2360 Rocket 2.7 23:29:35 10° NNW 23:34:45 55° NE 23:34:45 55° NE
Cosmos 1802 Rocket 4.0 23:29:39 10° N 23:35:30 71° NE 23:35:30 71° NE
Nimbus 7 Rocket 4.5 23:30:37 10° NNE 23:35:57 74° NNE 23:35:57 74° NNE
Cosmos 1241 Rocket 4.5 23:31:25 10° NW 23:37:17 78° NNW 23:37:17 78° NNW
Cosmos 2100 Rocket 4.0 23:33:18 10° N 23:39:10 78° NW 23:39:10 78° NW
Cosmos 2322 Rocket 2.6 23:35:03 10° NNW 23:39:36 59° NW 23:39:36 59° NW
Cosmos 1980 Rocket 3.8 23:37:27 10° NW 23:40:49 23° W 23:40:49 23° W
MOS 1-B Rocket 4.4 23:37:38 10° NNE 23:43:26 59° E 23:43:26 59° E
Cosmos 2173 Rocket 4.0 23:40:46 10° NNW 23:46:21 73° NW 23:46:21 73° NW
ALOS 2 4.3 23:53:27 29° NW 23:53:27 29° NW 23:55:48 10° NNW
Cosmos 2333 Rocket 3.3 23:48:42 10° NNW 23:53:56 37° NE 23:54:44 35° ENE
ATLAS 5 CENTAUR R/B 4.4 23:51:28 10° NW 23:55:11 21° N 23:59:20 10° NE
